GFSWCAN_2pvu_pres_072.txt.gz
Presure
383 404 420 441 456 501 523 385 365 369 363 380 381 367 348 346 315 294 292 309 331 364 455 451 294 280 259 210 240 232 235 215 218 221 220 217 217 217 213 208 219 222 223 212 212 205 198 196 195 200 202 198 197 203
428 459 426 461 484 464 544 399 370 366 362 389 391 358 348 331 303 293 300 307 335 355 441 459 320 287 265 256 245 231 231 213 234 218 226 225 219 223 219 219 218 215 200 202 202 198 196 201 204 194 200 202 201 202
441 469 456 431 447 436 482 395 376 377 394 369 397 353 337 309 298 294 305 303 328 351 380 437 437 275 263 253 246 238 166 234 232 219 221 224 219 216 214 215 212 190 206 198 205 197 207 202 202 201 194 198 198 202
415 438 435 429 451 429 403 388 384 378 384 401 350 332 311 299 295 297 214 301 320 342 353 391 469 274 271 256 247 237 230 224 183 235 226 228 216 214 213 212 211 208 206 194 200 202 199 193 196 194 193 196 201 208
365 389 410 433 451 473 447 401 396 401 349 336 325 309 295 298 292 295 300 304 314 329 352 364 474 368 268 265 249 240 230 211 234 243 239 226 220 217 209 210 201 198 200 200 195 192 191 199 197 191 195 205 210 209
335 346 354 350 355 357 354 350 342 335 327 309 309 302 292 294 293 303 306 303 308 317 354 347 411 354 273 275 190 243 183 234 245 243 239 229 225 221 216 208 204 207 204 198 196 202 202 203 204 206 206 210 213 215
324 329 331 331 324 329 326 324 309 313 312 306 301 289 282 283 292 296 290 292 309 326 265 343 381 339 284 260 263 249 197 238 238 239 235 230 227 225 219 214 215 214 210 208 210 217 221 216 206 207 218 222 214 222
328 312 314 316 313 316 313 307 311 311 306 305 296 294 293 297 302 302 311 320 337 352 353 351 369 328 301 224 212 170 231 219 244 236 230 226 228 222 217 209 210 209 212 216 219 219 218 183 226 223 215 217 224 169
332 323 315 309 309 312 312 314 309 304 305 305 305 305 305 305 311 323 133 335 369 373 421 385 362 292 307 242 193 163 250 256 228 236 232 228 224 223 219 218 219 218 218 166 223 224 151 219 169 220 197 222 177 224
333 328 323 323 320 309 309 310 311 310 309 316 323 328 322 325 327 329 357 420 340 356 351 375 294 291 305 168 246 252 244 254 247 240 234 225 220 223 154 225 225 223 224 224 218 161 216 215 215 214 224 225 225 220
329 331 332 330 334 334 328 324 249 317 314 314 318 326 326 326 339 406 417 373 190 341 341 302 347 302 300 277 258 253 252 249 246 243 237 231 225 151 223 223 223 219 179 215 198 214 191 226 222 205 225 228 225 225
337 336 327 327 325 321 325 125 172 146 333 245 320 325 329 351 400 391 370 386 328 310 316 310 299 338 230 251 247 219 217 245 245 243 160 236 227 224 224 224 218 218 218 224 213 207 227 226 225 224 227 226 225 228
354 348 345 345 339 338 343 311 144 305 134 132 137 344 148 468 399 392 358 359 311 305 133 308 289 272 266 271 260 231 239 250 248 246 247 243 237 230 162 225 227 239 236 232 233 234 232 229 227 227 228 229 227 224
403 389 371 362 354 351 350 347 343 161 357 214 363 140 151 173 396 341 135 315 327 314 255 200 188 269 218 258 258 259 212 255 254 256 163 223 251 246 246 244 241 237 236 235 234 230 227 224 227 234 231 228 227 223
436 444 452 438 441 455 463 451 441 444 451 434 224 324 339 341 332 331 318 309 307 291 223 213 215 261 266 232 247 192 234 240 238 242 247 212 229 233 236 237 235 231 225 218 220 230 234 234 232 229 233 225 214 216
285 307 313 319 327 332 345 381 457 227 357 278 279 292 325 298 301 304 292 301 287 241 247 280 272 267 264 241 204 213 251 246 167 230 231 232 231 221 229 226 223 220 221 230 233 237 236 224 229 233 235 235 237 238
277 272 279 278 282 280 283 289 297 292 287 282 286 271 268 274 284 284 281 279 284 274 279 276 246 272 272 265 265 269 269 253 243 241 243 241 226 225 226 225 224 222 239 224 204 230 235 220 235 243 258 259 253 247
275 256 269 266 259 265 263 265 269 272 267 267 271 267 270 272 270 274 266 268 273 267 272 276 269 266 270 267 266 264 258 259 265 248 255 264 256 252 247 246 239 247 253 239 252 251 251 241 237 244 245 245 247 249
251 278 230 268 264 250 263 261 263 265 261 263 263 258 260 255 251 255 267 264 261 262 264 262 261 263 256 254 258 252 262 255 252 256 251 251 257 257 258 259 257 258 249 250 264 253 250 236 240 244 254 256 241 255
237 243 250 234 280 262 225 272 249 239 243 252 246 257 252 228 259 267 273 260 259 249 254 252 254 253 253 251 252 255 251 255 255 256 249 247 245 242 242 245 247 250 248 242 234 236 239 240 250 268 276 265 255 244
238 238 249 249 227 223 232 244 276 274 268 258 220 238 255 270 238 247 270 214 255 253 255 254 249 248 250 254 239 261 243 243 244 244 249 250 254 251 249 244 236 237 239 239 243 241 259 255 261 250 253 258 258 256
248 234 240 253 245 235 242 230 245 242 275 267 267 263 261 245 249 261 234 262 271 231 235 247 248 247 250 247 241 245 246 248 249 250 252 250 252 249 251 241 238 235 250 259 246 255 266 265 260 258 260 280 271 262
257 256 250 243 245 237 254 254 246 245 272 241 250 277 249 249 245 234 279 249 276 270 227 246 246 261 259 256 251 233 258 258 238 244 242 246 248 245 254 248 250 242 255 263 267 258 265 275 278 271 269 267 267 267
246 242 246 252 258 252 242 242 244 246 254 256 248 240 252 244 246 252 242 244 239 236 243 246 242 245 248 244 240 238 238 238 239 237 236 233 234 236 247 264 261 262 270 278 275 270 270 271 268 266 264 264 269 274
241 247 243 249 250 251 238 242 248 254 251 245 245 249 243 242 246 248 245 240 244 253 251 253 241 237 236 239 234 234 239 238 240 251 254 259 256 257 265 273 270 258 260 267 265 261 263 267 266 271 271 276 276 289
249 235 240 240 242 241 244 244 245 243 248 249 250 251 246 255 251 256 255 254 257 252 257 257 257 257 257 258 254 255 259 262 232 267 269 265 263 264 265 271 276 269 263 265 265 267 273 275 272 274 279 291 299 306
244 244 245 245 246 251 248 239 242 245 247 241 245 246 249 247 246 245 247 252 254 256 256 253 247 252 254 251 252 249 248 248 250 253 257 258 257 265 268 259 254 264 268 275 275 277 278 277 284 293 301 344 357 361
257 259 257 253 257 260 255 260 260 251 250 253 262 267 264 262 258 260 253 256 260 260 255 254 258 261 251 251 255 267 267 258 255 261 267 268 268 268 269 269 273 277 278 279 279 280 288 295 302 322 359 409 412 412
258 262 261 260 262 262 264 261 264 265 261 264 267 266 267 260 255 255 253 259 261 263 265 272 267 268 276 277 275 270 269 269 272 272 273 277 276 277 280 281 280 277 280 293 296 301 305 330 346 419 409 401 407 395
281 284 285 281 282 282 278 274 273 271 272 281 272 270 271 267 266 266 266 263 262 263 265 264 267 270 270 273 275 281 282 281 280 277 276 278 281 278 280 288 294 296 299 307 318 344 360 411 398 400 404 391 380 369
285 285 287 291 298 299 295 290 290 288 298 297 294 297 286 289 292 290 287 291 292 291 290 291 284 279 278 277 276 275 278 284 286 285 286 290 291 293 296 304 311 329 349 358 417 406 395 386 402 389 377 367 360 364
356 360 382 376 371 370 369 392 414 447 377 377 378 379 379 375 371 373 375 377 376 362 346 341 331 325 320 315 312 304 295 301 303 307 314 361 357 355 350 350 343 422 407 395 386 381 397 385 374 363 356 354 357 364
376 373 375 381 382 382 380 376 376 426 422 416 416 413 413 405 414 412 414 405 396 349 343 347 356 355 361 358 356 351 352 352 349 343 339 342 349 360 410 404 397 388 380 371 394 381 368 358 353 351 353 175 363 364

GFSWCAN_2pvu_pres_078.txt.gz
Presure
277 288 297 392 383 384 389 398 451 443 380 366 370 371 269 313 372 392 198 397 342 94 224 282 206 102 105 199 126 426 171 283 262 267 277 256 239 230 220 220 215 214 215 211 203 196 191 183 196 199 193 193 195 185
288 380 372 376 425 492 462 440 451 444 412 388 376 358 369 360 376 447 429 388 341 291 281 280 118 299 300 313 340 390 156 280 262 270 273 252 232 227 220 215 216 208 210 209 207 201 190 193 190 191 193 194 196 175
365 362 390 416 397 402 403 411 418 430 445 385 355 361 355 374 410 400 118 371 326 313 286 270 286 298 299 124 344 371 287 277 271 262 265 258 235 228 221 220 215 213 214 206 209 208 206 201 195 195 197 195 198 195
352 383 381 373 373 421 511 433 411 434 402 358 353 349 372 386 373 379 361 347 332 294 283 272 285 292 306 309 332 370 275 278 266 267 267 276 239 227 220 219 217 217 215 205 197 201 206 207 206 199 193 194 196 193
370 373 356 359 377 505 455 483 483 427 366 351 351 382 382 359 349 249 318 319 222 283 286 269 287 291 303 314 335 387 275 266 258 263 265 268 239 229 220 218 216 217 207 211 208 209 209 206 205 204 202 200 202 186
389 364 349 357 374 380 526 490 446 370 349 356 366 358 362 342 337 319 314 294 300 293 301 295 285 299 307 317 337 396 273 262 252 166 264 263 243 230 224 218 210 212 207 204 204 203 201 202 208 210 209 204 203 207
359 357 345 367 349 360 369 363 360 364 353 345 341 367 349 337 321 314 303 305 304 309 306 288 292 302 307 321 377 437 276 262 265 265 268 265 255 224 225 215 214 211 210 211 209 204 208 206 202 210 209 210 210 218
325 339 364 360 364 352 357 358 351 347 359 366 371 378 142 352 328 310 305 307 311 296 280 288 290 296 334 359 434 435 282 249 272 256 265 261 256 248 226 216 214 212 212 210 210 211 211 212 212 209 209 210 218 213
318 320 333 382 363 357 354 362 366 366 356 351 355 354 175 330 326 317 307 288 289 279 288 287 304 334 352 369 416 414 288 275 266 265 209 261 251 253 240 220 218 218 212 208 207 204 206 206 205 209 207 209 212 210
295 309 316 316 332 362 362 337 328 323 322 319 318 316 318 309 298 291 281 279 285 282 287 304 327 356 378 465 400 409 211 199 252 261 263 255 249 242 240 245 235 226 219 214 209 209 205 210 203 206 212 216 211 209
297 296 304 308 308 309 312 308 307 304 306 300 307 287 297 290 286 283 181 283 289 288 296 349 341 343 348 418 397 383 284 200 267 263 265 208 247 197 239 234 239 234 227 223 220 218 215 211 205 206 209 217 215 212
294 294 291 293 296 299 297 293 293 292 291 289 288 292 290 281 280 286 286 289 285 292 295 316 236 329 278 358 393 185 262 277 265 212 261 242 254 159 239 231 227 229 231 235 234 232 228 224 225 214 210 215 213 214
304 293 295 293 291 291 292 295 293 286 281 281 287 284 282 283 281 288 282 286 284 309 167 239 292 149 188 266 313 388 160 271 271 262 252 257 249 244 224 234 231 230 230 227 226 226 225 223 213 228 226 221 218 219
314 306 300 294 292 289 288 288 284 283 283 283 279 279 275 284 285 283 293 156 322 150 298 166 298 300 209 321 307 142 140 267 262 163 158 256 245 241 241 237 235 233 230 226 222 222 223 226 228 227 225 224 219 216
332 335 320 312 309 300 298 299 297 294 293 293 292 291 300 311 337 339 369 301 298 285 286 195 178 236 266 263 302 321 342 281 264 266 257 248 245 242 239 234 234 234 233 230 227 225 223 223 222 220 221 223 222 215
343 331 323 322 322 124 123 124 135 139 318 319 323 232 344 314 340 301 293 200 283 187 279 141 179 286 264 293 282 283 373 353 270 264 219 207 244 245 239 238 239 236 234 233 232 230 228 227 228 217 219 228 229 231
480 386 369 355 350 342 341 149 329 336 143 141 328 336 307 317 301 298 299 289 286 274 262 261 264 274 243 280 275 303 297 321 383 259 266 252 245 232 234 235 236 236 236 235 234 228 233 188 228 206 238 236 225 210
310 437 449 363 370 364 367 369 420 411 439 445 360 165 305 296 292 290 280 272 269 277 269 257 255 256 256 275 173 279 284 284 286 305 264 249 241 246 247 243 241 240 235 237 237 235 234 233 234 235 239 245 244 234
283 267 299 299 307 312 351 383 378 392 389 317 297 307 290 281 275 288 282 276 270 267 267 259 260 262 261 258 248 254 242 262 269 266 274 282 256 237 252 246 239 234 222 240 241 238 241 233 232 225 227 245 220 235
270 270 274 278 281 282 284 280 312 302 297 290 293 299 288 292 265 271 268 260 262 249 250 247 248 254 253 251 257 251 249 261 255 258 255 257 263 274 271 261 235 234 233 256 243 247 249 259 254 244 240 253 257 239
272 262 244 261 263 273 270 202 265 268 273 277 297 297 277 291 269 269 263 257 252 234 249 253 251 253 243 243 241 249 252 241 245 257 261 264 263 260 257 260 259 256 254 242 237 244 254 260 258 254 258 257 251 240
236 258 273 250 259 228 249 260 262 259 264 247 262 278 276 260 259 265 246 254 251 245 257 264 248 246 245 245 243 246 248 250 247 238 242 257 252 250 243 244 245 250 257 258 257 254 254 251 252 243 257 260 256 249
242 238 264 248 276 254 247 276 242 268 238 265 260 245 261 258 264 248 248 246 250 246 253 252 247 251 248 241 245 244 250 250 249 248 246 246 250 251 266 259 258 260 255 253 255 251 237 249 254 246 246 252 253 271
243 239 246 235 243 241 272 252 242 239 229 238 264 261 246 255 251 267 262 259 235 244 250 252 251 252 250 250 249 251 250 251 252 258 267 258 259 256 256 258 254 257 251 243 237 240 245 253 260 237 264 262 254 265
257 231 232 230 234 238 233 253 245 241 251 246 268 233 226 245 260 270 257 235 261 270 266 261 266 274 274 270 271 271 261 263 268 268 233 235 238 238 239 260 261 262 243 264 263 262 262 264 263 259 255 252 258 275
245 246 251 254 237 247 245 239 245 246 240 253 242 244 246 253 245 244 237 235 248 247 237 235 234 241 246 244 242 239 247 255 259 257 259 261 262 264 264 261 250 251 255 257 256 255 257 259 262 269 260 268 272 283
244 241 243 244 245 248 252 250 250 246 244 249 251 243 241 246 247 246 244 244 249 249 251 244 238 240 241 242 252 256 257 255 254 256 257 255 253 253 253 252 250 253 247 256 258 270 272 271 265 265 273 281 282 291
253 246 240 241 242 242 236 237 240 242 246 246 243 244 246 248 247 250 249 248 248 248 249 251 252 247 249 251 252 252 251 251 251 252 256 255 261 259 260 260 263 264 265 270 272 272 274 278 279 281 289 292 294 309
257 258 256 253 255 254 254 252 250 252 248 246 247 249 249 243 248 246 247 247 246 241 244 246 246 249 250 251 251 251 249 251 257 262 265 268 268 268 269 272 275 277 277 279 279 279 278 282 291 292 304 374 373 370
261 261 257 259 259 260 262 259 258 260 260 259 259 259 257 257 256 256 257 258 257 259 262 263 265 265 264 264 268 269 270 270 272 272 273 272 272 275 274 274 275 278 282 283 286 295 299 301 333 362 326 324 334 355
268 268 265 265 261 258 262 263 264 263 264 266 267 265 267 268 267 268 266 267 268 269 269 271 273 274 275 276 275 273 272 273 273 277 279 279 279 281 288 293 301 310 347 364 356 360 362 349 335 377 420 406 396 385
281 281 280 281 283 285 284 282 282 282 281 277 279 276 280 280 283 285 284 279 279 281 283 280 279 281 282 281 281 283 281 284 287 291 294 296 306 382 384 379 375 374 375 370 391 393 389 396 413 403 387 379 373 366
314 317 320 323 334 336 342 354 361 362 373 375 413 444 449 440 448 334 325 314 297 294 295 296 296 295 298 322 327 331 414 407 403 400 393 390 387 386 387 389 393 393 388 384 385 404 407 397 381 368 374 365 361 354

GFSWCAN_2pvu_pres_084.txt.gz
Presure
274 271 268 265 267 269 277 270 277 285 269 267 281 271 268 267 269 266 264 260 274 266 262 272 163 268 264 104 94 104 97 258 272 287 304 340 539 308 283 266 269 274 275 260 259 249 269 218 212 211 209 208 123 117
266 267 276 276 278 286 291 294 303 310 319 337 372 384 311 302 295 288 263 265 275 285 285 203 166 101 126 123 91 259 293 291 273 285 301 269 520 298 280 266 285 297 301 277 249 249 241 218 215 205 203 198 213 210
272 270 281 290 297 315 365 365 362 357 355 355 355 353 353 356 365 376 378 332 313 311 297 286 218 120 178 260 277 127 286 300 250 283 299 343 568 299 279 277 280 277 265 262 274 260 228 221 211 209 212 204 220 212
282 292 299 329 353 375 371 375 373 369 367 364 364 365 365 382 391 88 352 358 361 368 231 245 332 173 183 281 283 284 285 291 137 285 302 341 514 299 285 278 279 303 286 258 262 250 226 212 206 206 208 208 217 212
305 344 340 345 375 372 384 441 412 388 371 357 363 354 355 354 366 369 350 340 352 358 218 429 426 381 249 227 276 282 176 280 131 286 309 348 339 297 289 288 299 274 265 252 257 241 220 212 213 208 216 210 209 219
332 332 370 364 354 361 463 729 702 459 502 367 362 363 356 370 431 355 338 346 349 386 376 104 420 381 110 190 274 272 219 273 282 283 300 277 331 306 300 298 280 272 261 249 261 240 219 216 210 208 211 208 207 218
333 379 365 361 345 356 452 441 446 430 422 410 393 391 471 404 364 339 327 349 391 384 373 389 384 286 287 281 144 147 200 277 285 291 308 339 374 302 300 306 268 263 257 261 258 240 217 215 214 211 215 211 207 210
369 351 352 343 352 352 375 417 436 430 433 444 410 392 373 358 341 337 348 343 333 323 339 371 352 343 306 308 285 277 279 282 281 293 309 325 369 314 315 305 266 257 253 261 256 242 224 216 212 211 211 213 213 207
355 347 349 336 336 375 345 346 363 362 354 350 346 342 339 338 342 341 339 331 346 322 299 362 335 319 315 303 282 278 277 286 281 300 306 319 351 403 323 268 265 252 248 258 254 246 232 216 217 215 212 211 209 209
352 350 360 349 340 355 369 365 350 352 350 344 342 340 343 340 345 361 369 226 344 350 344 335 335 316 312 314 297 286 284 285 301 299 303 320 185 409 370 262 270 256 256 259 245 243 235 220 213 211 218 216 211 211
325 329 341 357 346 345 336 340 338 337 346 354 353 353 351 352 346 211 358 367 365 346 332 315 309 306 309 303 289 286 281 300 299 294 305 324 446 367 353 269 272 259 253 251 246 235 235 237 235 225 220 214 215 213
312 317 327 338 359 353 328 327 318 290 318 318 326 343 345 343 345 326 318 314 308 306 304 299 298 295 273 283 296 297 294 300 302 299 308 360 389 349 334 270 271 252 258 248 242 238 236 232 235 240 238 235 233 230
282 302 309 317 327 345 343 324 294 323 323 313 310 313 310 307 303 299 288 291 295 293 288 288 287 287 287 292 299 309 312 322 320 315 316 250 339 213 315 249 274 255 257 255 243 233 232 232 229 229 226 216 216 216
297 285 283 302 306 316 340 324 317 306 298 291 288 285 286 286 287 284 284 283 285 317 302 305 311 322 324 340 353 393 173 398 395 379 443 345 339 338 321 258 177 225 252 162 246 235 231 225 221 219 218 214 213 213
287 290 295 282 280 279 289 288 287 283 282 280 280 273 278 279 278 291 322 309 291 287 293 310 201 321 326 274 226 149 357 346 375 418 359 330 336 336 305 261 263 246 234 253 248 237 236 231 222 219 216 212 212 215
284 287 284 281 279 279 282 282 279 278 280 282 283 276 285 282 286 292 281 248 290 298 244 291 264 285 291 314 335 360 386 374 373 410 343 327 337 330 286 265 260 252 248 245 248 248 242 234 227 225 223 222 221 219
293 287 286 281 133 278 277 278 281 279 278 277 276 281 279 280 290 291 295 294 292 284 282 277 288 297 291 232 301 301 322 323 355 335 356 245 345 290 273 267 260 247 241 241 245 246 245 245 244 241 233 235 231 230
311 304 296 291 286 157 278 247 270 279 275 279 279 280 274 286 297 280 280 272 269 269 276 285 279 280 284 303 304 304 322 314 325 206 325 339 334 203 265 175 250 246 240 239 241 244 244 242 241 240 239 239 240 241
338 330 324 321 277 221 140 222 288 288 286 282 280 295 295 317 283 271 273 274 278 272 270 197 185 201 150 257 280 286 295 307 324 326 328 306 244 247 250 250 247 244 240 236 235 235 233 232 233 233 232 232 231 229
364 359 358 371 385 339 328 313 315 307 309 314 337 351 329 283 268 273 221 263 256 262 259 257 261 195 267 279 268 286 295 312 319 335 343 280 259 249 247 246 242 241 237 234 233 231 230 231 231 233 237 241 241 241
298 306 340 380 407 456 385 349 350 353 347 334 336 294 281 265 274 256 257 257 265 255 252 243 259 258 261 262 273 263 259 278 288 299 275 286 275 264 250 246 238 237 234 234 232 234 238 237 234 235 238 239 241 257
289 292 288 293 302 298 313 324 338 325 316 293 281 260 256 267 270 251 254 269 253 242 247 250 247 258 246 262 262 258 265 270 268 275 286 290 267 259 289 260 251 250 254 253 253 254 254 247 248 243 236 238 256 266
277 272 271 287 286 278 295 287 307 279 283 261 266 271 269 261 257 268 255 251 247 259 244 252 260 250 250 248 260 261 259 261 260 262 264 265 263 267 268 270 272 274 274 276 274 272 270 268 260 257 251 243 242 248
251 241 252 261 281 244 253 290 279 288 287 278 264 272 248 247 254 250 258 258 263 262 248 260 250 273 256 237 247 234 233 239 238 234 239 245 247 243 244 245 244 246 245 244 246 246 245 246 250 252 255 255 266 252
248 240 256 250 250 259 272 238 282 266 268 278 254 273 260 267 261 264 269 265 237 262 260 252 263 262 258 254 259 258 257 252 252 239 251 250 250 248 244 242 243 243 245 236 238 247 251 251 247 250 264 275 268 271
242 238 248 240 252 249 248 243 244 242 242 275 270 267 255 242 255 275 268 239 234 253 251 260 245 243 242 244 249 243 239 243 245 242 243 252 248 248 248 252 253 259 259 259 257 260 267 277 267 253 255 260 262 259
248 247 249 246 240 240 235 243 248 242 239 245 247 245 250 260 270 259 245 255 263 254 251 250 255 257 263 247 251 258 260 257 261 258 253 257 254 256 246 244 241 246 241 248 251 250 256 263 266 261 255 255 259 263
246 250 250 255 253 246 242 242 241 241 231 237 244 238 239 239 247 240 258 257 263 262 245 249 242 248 258 258 235 250 243 236 237 248 266 266 254 261 263 260 254 252 255 263 265 250 255 257 254 259 264 273 276 274
249 248 248 248 245 238 233 246 246 238 244 245 243 245 249 248 248 252 256 250 249 247 248 249 250 252 251 251 249 251 250 256 246 247 249 255 260 262 264 266 265 258 254 256 257 257 264 266 267 275 276 278 283 290
254 253 249 249 250 249 250 248 246 248 248 246 243 241 241 241 243 244 243 241 242 241 243 251 250 252 254 256 258 253 252 246 246 251 253 256 258 259 260 260 260 264 266 267 268 271 277 276 276 284 294 298 302 306
262 262 263 265 265 264 260 258 257 256 254 254 254 255 256 256 256 258 258 257 257 255 253 252 253 254 255 254 255 256 258 258 257 261 262 265 267 268 269 270 274 276 275 275 277 283 286 294 302 305 306 308 329 390
275 276 276 276 276 277 277 278 278 276 275 274 272 271 270 269 266 252 253 253 253 265 265 265 268 266 269 271 274 276 278 278 278 278 277 277 278 281 285 288 291 293 295 300 304 305 308 314 333 402 405 401 397 404
291 289 284 285 285 286 285 286 292 293 293 295 292 297 301 303 302 290 300 308 307 308 306 306 305 302 300 300 298 297 296 299 298 300 301 303 304 304 305 309 311 314 335 340 410 407 402 368 344 334 404 390 395 396

GFSWCAN_2pvu_pres_087.txt.gz
Presure
307 297 288 283 279 275 271 269 267 269 271 266 263 261 262 262 260 259 252 168 278 261 258 255 209 256 257 257 215 265 268 269 141 117 134 284 292 301 362 284 286 271 263 265 272 271 299 266 253 239 256 236 239 222
284 277 273 270 270 271 270 269 267 267 266 266 265 262 263 264 262 264 261 260 269 273 259 260 255 250 118 175 88 88 94 116 236 252 264 279 281 302 352 325 288 267 286 278 279 272 259 261 254 247 249 254 234 225
269 269 270 269 273 274 275 275 275 279 282 279 268 256 256 259 256 273 261 263 253 276 271 252 261 257 252 255 263 128 258 272 138 278 222 283 276 294 326 388 306 280 261 261 295 286 261 274 259 243 250 251 232 221
270 275 274 277 283 288 292 299 305 312 334 333 333 332 331 306 304 285 98 265 271 272 287 275 253 104 258 260 121 263 132 127 263 277 284 269 274 291 316 390 315 278 271 270 271 276 282 270 261 248 239 251 232 214
278 289 288 308 305 341 356 353 349 372 371 377 372 383 365 341 337 331 354 363 365 343 294 274 159 259 170 214 127 132 120 201 259 289 147 289 278 284 326 380 290 268 284 270 271 265 288 265 255 241 239 252 232 217
314 345 344 339 357 383 384 379 377 377 370 368 358 351 351 356 362 363 366 202 339 88 341 357 379 290 245 122 129 102 216 103 273 292 206 139 287 283 327 368 303 274 278 291 305 251 250 262 248 233 242 240 226 216
332 335 372 355 354 368 379 457 486 467 458 445 406 354 345 341 340 347 348 356 361 346 285 344 346 312 103 365 301 156 266 271 153 291 295 278 290 286 333 372 289 290 283 292 302 304 260 252 246 245 251 238 231 218
357 357 353 345 365 351 458 416 445 426 416 409 380 343 339 330 341 342 313 353 348 351 126 348 357 416 403 415 368 378 285 199 220 301 275 279 285 282 332 316 291 287 290 246 244 261 258 251 243 247 245 229 226 233
353 355 346 369 349 340 373 412 393 418 395 372 373 350 338 344 339 314 347 339 327 353 353 342 333 399 405 370 366 359 333 117 303 263 273 256 286 276 270 331 293 298 302 298 314 262 257 251 244 249 237 230 224 222
353 350 342 364 350 354 352 363 412 396 376 370 364 359 346 387 364 341 328 342 330 326 328 328 355 370 360 352 332 338 362 287 268 267 264 274 299 303 349 361 298 295 301 249 256 255 248 245 244 246 235 232 226 224
355 339 330 333 344 362 356 349 342 355 367 367 362 354 341 335 330 323 327 332 335 338 331 356 350 346 339 344 247 325 295 268 269 273 254 290 279 298 324 338 326 316 292 293 255 253 247 243 241 243 235 232 225 219
364 332 321 321 326 336 344 354 359 350 347 342 343 346 341 342 348 346 331 332 330 366 362 341 325 325 320 330 335 281 284 281 276 279 280 279 283 301 315 341 316 320 316 261 259 254 246 245 253 247 237 232 230 223
327 335 317 321 313 313 314 321 327 330 348 372 374 371 378 378 390 386 364 368 373 362 342 326 319 312 310 304 296 307 298 308 281 288 286 290 297 297 317 330 184 294 322 265 262 256 246 247 252 253 247 237 231 226
320 339 327 305 298 299 299 299 299 297 296 294 296 303 302 304 306 300 298 299 299 298 296 294 294 290 297 298 294 297 304 288 286 274 289 289 305 303 324 175 376 375 300 271 262 250 247 242 247 252 245 244 235 231
316 321 307 305 296 291 289 288 285 290 285 282 280 280 284 285 282 286 285 288 289 283 285 291 304 305 312 315 334 349 359 374 376 371 319 293 256 164 409 354 341 314 309 262 261 246 174 243 247 248 245 242 237 236
278 299 302 297 288 288 287 285 282 279 283 286 291 288 293 298 308 300 293 297 302 301 295 300 308 311 318 332 184 336 344 355 340 348 379 429 264 312 388 331 309 293 300 222 262 249 228 247 249 244 241 240 238 236
275 267 282 281 278 275 273 276 278 282 282 283 301 314 297 291 289 284 293 289 278 277 285 287 294 301 305 313 316 318 340 359 363 368 345 354 326 343 337 349 304 303 290 255 261 262 250 239 243 248 245 240 237 235
279 127 270 274 278 275 272 276 273 275 277 281 286 283 274 285 282 291 278 280 281 281 284 283 281 291 281 293 309 317 337 344 335 370 390 350 336 324 314 321 297 288 268 256 261 261 229 238 246 248 247 244 241 237
289 286 281 281 280 278 135 280 281 282 279 278 284 275 281 282 284 194 267 270 271 277 271 272 277 276 274 273 284 306 319 334 168 360 348 341 346 334 320 323 299 285 261 258 257 255 247 245 242 240 240 242 244 244
308 306 300 255 285 288 274 281 274 283 277 277 284 282 284 265 264 264 272 286 270 263 263 227 142 279 283 280 286 298 308 310 305 348 339 333 330 311 315 321 277 263 258 257 255 249 240 236 236 237 238 239 240 241
387 388 389 351 306 300 295 289 294 283 270 284 294 271 267 262 270 278 264 254 257 263 255 263 270 264 267 279 276 288 312 316 326 284 294 307 326 283 264 262 255 253 249 248 246 239 190 192 237 236 237 235 233 234
307 326 380 431 397 338 319 323 340 355 351 351 277 267 261 267 274 261 259 256 263 257 257 258 255 259 265 246 269 271 272 276 290 295 283 275 280 274 265 252 250 247 245 242 240 239 239 240 239 238 239 238 206 241
289 291 309 324 309 304 311 306 306 313 306 282 269 259 266 270 252 259 251 267 257 259 251 258 249 250 250 272 255 264 255 265 275 264 268 276 274 266 264 261 253 250 250 247 245 244 243 242 242 241 243 244 249 246
279 285 286 290 306 308 295 290 292 285 274 276 252 262 270 260 250 258 263 259 255 260 239 252 256 263 256 259 266 258 262 263 264 258 269 277 281 283 275 275 254 251 250 247 248 247 244 244 241 247 259 270 269 264
257 255 264 285 298 287 291 290 280 267 267 265 263 266 249 259 266 251 273 263 246 258 260 259 253 247 255 258 259 261 255 250 247 246 248 246 248 250 249 250 251 252 253 253 250 251 250 248 247 247 249 248 248 250
260 261 253 255 244 256 240 291 289 265 253 277 262 266 273 255 260 265 255 253 257 254 274 247 263 271 267 270 266 245 243 239 244 254 246 258 254 254 248 253 255 247 246 251 250 249 250 253 250 253 253 258 260 262
247 251 253 257 250 251 253 254 249 261 276 282 266 261 284 258 243 242 253 264 259 269 262 239 242 247 248 245 245 263 240 242 248 253 249 253 254 253 254 254 247 257 259 256 252 255 259 263 261 263 264 274 276 260
246 245 248 241 248 251 248 250 244 249 248 247 255 251 271 273 279 260 270 250 252 253 252 249 252 259 260 258 256 252 250 250 251 250 250 251 249 252 250 251 238 251 251 253 245 245 250 269 262 262 256 253 258 264
245 244 244 242 244 244 244 249 255 253 245 246 245 242 242 245 248 253 256 248 248 249 247 247 250 275 272 270 268 268 269 269 267 267 251 250 266 252 246 252 254 275 274 272 256 254 252 254 258 264 266 271 273 271
251 251 252 251 251 249 250 250 248 247 243 245 242 241 244 245 245 242 243 246 248 239 249 243 246 251 255 255 255 256 257 257 256 259 259 258 258 254 254 253 252 257 259 265 266 266 268 269 271 272 276 277 278 282
255 257 259 259 257 257 257 255 256 256 256 255 255 256 253 250 244 251 251 250 252 248 250 249 250 253 253 252 252 251 251 259 261 262 264 266 267 267 268 267 267 268 272 274 278 279 279 280 281 284 289 291 296 304
271 271 271 269 266 269 270 269 268 266 265 263 263 264 260 258 257 258 254 249 247 245 249 264 266 264 266 266 266 265 261 262 258 267 270 276 279 280 281 281 281 280 280 280 285 290 293 294 300 307 314 321 399 403
290 290 292 292 292 292 289 290 289 287 286 287 285 289 290 291 274 275 278 285 287 278 281 279 280 281 281 281 282 283 283 285 285 288 293 295 296 297 297 300 302 303 329 337 339 413 411 410 407 402 394 389 343 411

GFSWCAN_2pvu_pres_090.txt.gz
Presure
333 337 336 336 335 332 321 307 295 289 278 276 276 269 271 271 276 271 259 259 263 268 266 269 269 272 274 278 275 280 290 287 285 291 289 285 287 296 306 305 378 309 285 267 258 259 274 281 266 241 205 263 260 266
308 307 306 305 299 294 290 280 273 272 273 270 269 269 266 268 270 274 265 256 249 254 256 259 263 264 263 263 265 99 278 278 281 280 278 280 279 288 297 303 358 351 275 273 269 259 274 265 261 283 270 261 268 271
297 296 293 288 284 279 276 274 272 270 269 268 268 267 267 268 267 268 266 270 254 254 257 253 260 255 212 229 119 115 165 156 248 252 132 222 139 282 286 292 335 360 280 268 258 268 260 264 254 271 278 261 270 255
276 272 269 269 269 268 268 268 269 268 268 268 267 264 262 262 261 257 258 258 195 265 255 254 247 251 253 255 258 259 229 233 250 270 230 265 150 174 274 290 293 335 296 274 267 259 262 274 289 254 287 268 252 245
268 272 274 277 276 273 273 275 274 271 271 270 267 263 255 254 254 134 252 253 258 256 253 250 246 241 251 253 257 259 244 260 267 224 162 269 266 265 266 278 294 334 310 269 272 273 276 271 243 228 281 267 253 248
280 285 283 270 269 289 304 304 304 305 303 297 284 283 286 286 286 269 270 269 269 276 280 254 267 246 252 186 250 256 162 105 265 273 277 270 273 264 276 272 274 295 333 289 276 269 289 292 265 257 263 269 270 253
296 338 339 341 345 345 372 382 386 386 388 379 350 337 335 332 332 333 338 333 339 348 309 300 218 266 274 243 252 254 116 193 259 170 275 272 266 242 273 280 278 285 311 346 285 286 275 254 294 291 235 263 262 248
363 367 362 357 363 364 361 377 432 448 417 376 365 359 352 349 347 351 352 340 298 339 337 301 349 363 106 101 273 195 177 135 201 279 223 276 261 273 279 284 276 285 308 335 258 263 263 270 265 239 254 250 259 248
342 345 363 344 341 365 423 434 427 465 475 431 355 339 325 323 328 330 310 162 351 361 95 253 197 153 224 212 365 162 172 274 280 277 278 283 180 286 238 274 297 287 301 307 380 263 263 264 268 254 255 263 254 248
333 349 352 350 348 397 393 394 400 412 409 415 394 343 330 332 324 322 327 329 338 372 365 348 223 345 201 354 363 361 377 370 303 265 290 302 277 277 194 283 294 289 312 352 289 285 266 281 283 244 247 254 247 245
331 334 354 353 339 377 365 359 369 368 370 367 361 351 335 330 323 324 338 332 333 332 337 341 344 347 367 405 401 376 366 377 369 344 287 211 274 272 237 285 285 290 362 365 286 275 273 274 274 235 241 242 245 242
323 326 337 358 342 345 368 354 334 340 344 323 326 327 328 332 338 331 325 339 339 344 334 328 327 372 366 349 336 339 300 343 348 355 349 274 272 272 278 284 285 296 347 332 299 284 282 258 249 253 244 253 242 241
317 318 315 324 354 345 339 343 366 364 358 349 336 333 326 332 352 354 341 329 332 329 326 338 364 337 342 338 328 314 335 338 347 348 288 274 267 277 291 284 287 302 333 326 306 286 259 239 245 248 256 245 247 242
300 300 300 301 306 311 317 310 346 352 346 337 335 340 364 331 333 347 320 323 349 356 360 319 324 322 323 323 321 317 322 321 328 182 278 276 281 274 283 284 302 300 315 345 310 291 245 245 253 253 257 245 245 229
294 293 294 295 295 296 300 303 303 305 310 329 344 354 356 320 312 315 305 305 304 301 302 302 307 302 305 304 300 311 314 280 283 282 288 289 281 294 291 296 312 308 258 160 350 254 260 271 253 249 249 246 248 242
295 295 292 292 291 290 287 289 291 288 290 289 292 293 293 292 295 297 299 301 302 298 303 306 309 311 312 311 311 318 325 326 305 311 315 315 251 291 296 303 307 297 325 338 152 263 257 192 214 222 215 244 253 243
289 291 288 281 277 279 280 284 283 280 281 280 301 301 294 300 293 289 270 285 283 284 290 296 302 304 310 310 314 325 334 348 355 345 348 358 353 282 299 319 302 307 361 370 345 277 291 266 254 260 259 258 249 247
277 271 273 271 281 280 277 295 306 308 306 291 285 293 288 282 283 283 273 278 283 290 289 283 286 284 289 289 298 309 316 338 354 346 351 374 406 414 313 272 309 351 329 323 310 319 266 266 264 243 251 253 249 244
273 125 270 272 276 277 281 289 286 286 279 281 284 283 272 271 266 265 276 273 276 276 276 244 277 226 285 283 287 295 295 242 338 358 347 358 360 348 306 330 343 323 315 321 316 275 285 271 268 262 255 249 245 242
261 232 231 140 269 270 274 282 278 275 275 273 283 277 263 274 270 225 270 270 271 275 279 287 278 278 283 294 299 304 285 302 319 362 345 311 343 320 335 320 310 327 315 308 224 325 214 249 248 261 260 251 246 241
292 289 282 272 273 138 277 278 281 271 269 275 279 268 266 245 266 270 267 262 268 274 276 274 267 271 273 287 301 311 321 306 308 341 366 352 341 332 327 313 326 298 293 291 303 287 280 251 249 250 253 250 248 225
381 343 300 294 288 288 272 277 272 279 282 285 272 266 246 265 275 259 267 266 258 258 264 259 260 260 259 272 281 291 287 302 330 302 311 326 342 334 321 319 317 320 288 281 280 273 261 255 256 255 253 249 249 247
356 405 446 313 301 299 296 300 271 307 285 280 266 264 259 275 260 267 259 256 268 260 261 252 253 251 247 247 269 268 277 288 286 277 275 279 287 294 299 288 294 287 281 264 261 249 250 241 240 246 247 244 245 242
315 318 314 305 307 311 316 319 333 305 295 264 268 263 267 249 259 261 264 263 251 262 260 259 245 260 250 258 266 249 270 273 277 277 267 271 268 267 270 267 254 252 251 245 246 248 251 251 247 238 236 236 236 239
286 296 284 287 284 292 293 291 291 278 272 265 261 261 265 266 252 256 258 253 265 268 261 239 258 251 259 258 255 258 259 262 258 255 258 261 267 273 274 278 254 255 257 257 258 256 251 251 248 248 249 248 247 244
262 271 277 274 278 291 278 283 277 274 269 257 253 258 268 267 259 245 250 252 249 256 243 243 263 264 261 263 251 259 257 251 248 250 251 250 250 256 256 256 259 259 261 265 267 266 265 262 262 262 262 262 262 261
248 251 246 257 265 284 290 275 276 253 261 250 255 264 266 267 256 250 257 268 254 256 253 254 256 249 260 267 254 258 263 267 271 257 244 243 247 244 252 254 250 252 255 254 256 255 253 255 254 259 256 252 265 267
248 249 244 252 237 243 247 262 282 281 265 253 254 266 274 261 258 251 269 245 247 250 244 250 255 259 264 250 245 241 243 244 242 243 242 249 240 243 242 248 250 251 249 257 257 259 258 258 262 262 263 262 261 280
244 245 245 243 242 242 244 247 246 243 244 270 247 244 272 284 284 265 258 265 277 263 262 270 267 268 260 261 266 260 260 267 265 263 262 262 260 256 255 262 275 270 268 265 264 255 254 254 255 256 260 265 270 272
243 244 244 245 247 246 248 247 246 247 247 248 248 250 252 247 246 246 242 245 247 248 249 250 249 249 248 250 249 243 245 250 250 251 252 254 255 257 256 258 261 263 266 268 268 268 267 264 261 264 272 277 277 276
252 248 248 252 251 251 251 249 249 249 250 248 248 248 249 249 250 252 251 252 253 253 252 254 255 254 253 253 253 259 261 265 264 266 258 267 266 265 260 256 253 263 269 276 278 278 275 271 270 277 285 289 291 291
263 264 264 264 264 264 265 262 261 260 259 259 261 263 263 262 260 261 265 264 264 265 266 265 264 264 265 264 263 259 253 254 251 277 278 278 279 278 276 273 269 267 274 287 291 291 291 290 290 296 304 315 419 420
285 286 290 293 294 296 296 294 293 292 292 291 291 291 290 290 286 288 289 285 285 285 287 285 286 286 285 286 286 288 290 291 292 293 292 293 294 294 294 294 294 295 301 306 311 335 342 427 424 423 407 399 343 337

GFSWCAN_2pvu_pres_093.txt.gz
Presure
324 316 310 312 319 328 333 333 334 323 340 334 305 299 286 279 269 269 277 278 276 286 284 308 313 316 317 301 316 319 295 293 226 276 290 293 297 305 305 312 321 322 330 388 410 374 284 277 283 287 291 291 287 293
316 316 317 319 324 335 339 345 346 344 327 309 300 291 275 268 267 268 263 262 266 274 271 278 280 293 291 294 296 301 291 297 294 290 278 291 290 294 291 298 307 315 333 353 336 313 306 273 265 235 261 261 310 271
303 303 303 305 308 311 315 320 321 309 304 286 290 281 278 277 267 254 256 257 260 260 266 267 268 269 275 264 280 285 281 284 288 286 285 286 284 284 283 283 295 308 338 313 303 292 284 294 265 258 285 276 264 290
292 291 292 294 295 298 298 298 296 291 282 284 278 276 275 270 272 260 256 255 260 254 260 257 259 259 264 269 273 274 278 170 274 273 272 270 270 215 277 282 281 300 315 305 292 283 273 271 269 284 272 280 292 268
279 278 274 271 271 272 274 277 275 272 275 278 277 274 269 268 270 275 272 258 203 255 263 259 259 260 209 261 264 265 271 217 267 137 265 265 181 196 141 264 268 283 297 287 278 268 272 278 291 284 255 268 285 272
278 266 264 263 265 264 266 272 272 261 264 266 266 257 270 259 263 266 264 257 263 262 255 252 247 249 258 260 261 266 271 269 269 273 258 256 256 263 261 259 155 268 295 328 274 270 268 260 264 261 262 279 282 281
293 294 299 304 295 293 276 271 266 265 266 267 267 265 264 261 257 143 253 249 259 266 270 245 241 248 253 255 256 254 255 266 270 270 263 261 230 260 264 260 264 264 274 279 292 272 267 265 258 260 257 297 249 246
359 357 353 357 365 376 380 367 349 327 293 286 280 276 266 180 271 268 268 264 265 200 273 249 254 242 255 246 102 253 256 186 267 131 260 254 258 211 258 253 255 268 280 282 300 281 269 268 262 258 267 276 259 274
337 347 358 352 349 353 364 371 375 379 381 342 342 326 291 290 283 281 282 283 123 288 283 295 276 286 253 252 254 246 183 239 132 267 246 258 263 262 234 253 256 261 275 296 271 295 320 274 269 264 267 245 280 244
334 343 354 355 371 391 398 418 422 434 436 365 360 356 355 327 325 321 317 318 327 333 336 342 329 204 119 105 305 287 212 111 268 270 264 268 283 255 255 253 256 267 277 283 290 280 283 335 283 267 265 252 267 282
336 350 340 377 355 370 402 379 393 429 427 408 354 339 344 340 334 341 345 342 350 352 331 98 356 240 357 307 141 242 247 353 367 304 284 231 178 264 262 250 253 267 276 293 294 317 285 316 290 277 276 267 285 263
337 350 328 360 347 340 369 368 362 386 385 368 346 338 333 334 331 327 330 328 331 327 353 358 330 275 343 318 346 359 350 353 356 364 382 125 232 253 279 262 264 266 280 292 314 282 322 386 342 300 267 281 271 233
330 341 340 343 359 338 336 344 352 351 349 331 319 326 325 316 322 329 327 329 342 334 331 344 237 336 331 344 347 346 345 355 369 376 334 364 230 361 313 278 270 284 296 258 288 293 373 338 227 286 300 267 264 218
313 320 326 338 344 352 346 326 323 324 332 340 342 344 341 335 327 331 327 345 356 329 335 336 322 348 346 340 338 353 358 349 346 337 226 235 328 255 289 284 294 291 272 282 298 310 323 303 298 297 267 251 256 256
307 308 310 317 326 337 343 350 337 332 327 324 327 323 326 336 358 353 331 329 322 322 326 317 316 332 322 319 321 322 318 322 321 324 271 329 333 273 138 293 275 282 277 289 292 313 281 302 293 260 262 251 260 272
292 298 299 300 298 302 313 327 349 358 352 353 347 344 327 316 308 296 298 291 283 290 294 300 299 298 304 300 299 302 302 303 306 312 318 323 324 240 292 285 273 274 277 285 289 250 331 227 260 295 263 211 255 271
286 283 286 287 289 292 292 291 290 293 293 291 291 295 305 309 304 301 295 294 296 297 303 306 309 308 310 313 317 324 322 336 329 308 300 286 293 162 288 274 277 280 232 144 292 285 301 327 295 166 248 260 249 250
272 278 280 282 275 278 285 294 300 297 290 290 292 290 290 289 289 286 293 293 289 289 281 285 283 285 291 299 280 307 314 323 322 334 353 351 343 286 315 320 315 283 290 302 292 308 313 313 322 294 302 262 252 249
272 277 280 290 302 310 300 285 293 288 287 276 285 285 280 274 280 280 274 274 274 270 276 286 280 285 286 283 290 225 301 305 313 325 336 344 357 364 392 428 284 293 309 288 330 310 316 321 306 308 263 254 253 262
270 276 275 286 287 284 277 287 287 281 280 276 268 275 275 269 270 277 276 267 273 278 269 276 276 280 286 282 295 293 284 306 307 337 337 352 344 351 344 354 323 291 279 323 317 300 297 300 295 305 256 262 259 261
266 267 136 272 278 279 278 276 282 270 270 269 269 255 268 264 214 266 272 275 273 272 269 278 275 283 295 157 318 310 298 311 307 169 349 324 338 341 340 325 290 292 298 324 311 313 301 302 300 290 276 293 264 259
276 269 184 269 139 245 276 274 280 276 268 255 268 269 275 264 265 271 265 262 268 269 260 268 272 269 268 271 280 313 317 299 308 335 346 354 356 330 321 321 330 341 336 314 303 310 307 300 301 305 251 255 257 263
290 287 265 266 269 268 276 281 269 280 268 259 265 262 270 266 262 262 262 271 258 258 252 246 261 258 260 259 272 271 273 284 287 281 289 291 306 323 322 327 329 325 302 307 319 306 309 304 302 305 316 291 280 265
410 324 300 289 271 283 271 278 280 280 278 261 264 261 264 262 259 262 265 254 249 259 263 261 260 264 255 252 261 261 262 266 268 270 273 275 276 275 273 277 280 285 295 299 339 335 313 274 271 273 272 269 268 263
312 317 303 303 309 315 321 329 274 297 283 269 268 263 257 277 262 265 261 254 257 248 263 262 268 260 259 267 268 267 252 277 272 262 259 259 271 273 260 265 266 267 267 267 262 263 261 261 259 256 255 253 252 251
282 278 285 287 280 290 295 299 276 285 275 272 264 270 263 268 257 253 255 261 266 256 261 251 257 260 264 270 258 260 256 251 260 262 263 260 260 264 266 268 268 261 263 263 262 259 256 247 247 248 248 244 244 244
253 247 261 278 287 282 284 278 270 270 271 271 264 259 260 259 264 268 269 255 251 255 249 248 252 256 254 248 253 261 259 267 262 253 253 259 254 256 257 256 256 258 261 260 258 257 258 256 253 252 253 252 251 252
245 247 248 260 247 247 280 291 274 271 271 257 259 266 262 262 267 258 262 254 250 249 253 252 254 253 256 259 262 258 257 248 241 254 253 253 252 253 252 253 256 254 255 260 254 258 264 267 266 264 266 267 261 263
251 250 253 245 248 246 241 244 244 245 275 276 275 273 250 259 263 260 259 262 266 265 264 258 260 262 265 265 255 261 263 271 280 260 276 260 252 253 255 256 256 257 257 257 260 261 262 260 258 260 257 255 256 265
243 243 249 247 247 245 243 245 243 244 244 247 249 249 248 247 250 253 255 257 256 251 251 251 249 246 247 255 252 250 251 252 250 250 258 248 250 252 254 255 255 257 259 259 261 263 265 266 267 270 275 277 276 271
248 247 247 250 251 250 248 249 250 250 250 250 250 251 250 249 251 253 253 253 253 254 254 257 258 261 260 262 263 263 267 267 267 268 268 268 266 263 257 257 250 253 269 269 270 272 275 269 265 261 255 281 290 287
263 265 265 264 262 261 261 261 264 263 262 263 266 267 268 269 270 272 272 270 272 273 273 275 274 275 256 252 252 253 255 277 278 277 276 274 271 269 267 267 266 273 281 286 289 291 292 291 289 288 298 302 304 306
273 276 284 287 288 289 293 294 297 297 298 303 305 307 308 308 305 302 299 298 296 295 294 294 295 294 295 295 294 295 294 294 293 294 291 291 289 293 294 295 297 300 303 304 306 308 309 328 335 418 420 416 413 412